| time (UTC) | temp F | wind direction | speed MPH | gust MPH | rain 1hr in | rain 24hr in | rain mn in | humidity % | barometer mb |
| 20260507084535 | 53 | 24 | 0.0 | 4.0 | 0.00 | 0.00 | 0.00 | 80 | 1020.4 |
| 20260507083035 | 53 | 32 | 1.0 | 5.0 | 0.00 | 0.00 | 0.00 | 80 | 1020.5 |
| 20260507081533 | 53 | 10 | 1.0 | 5.0 | 0.00 | 0.00 | 0.00 | 81 | 1020.4 |
| 20260507080036 | 53 | 5 | 1.0 | 4.0 | 0.00 | 0.00 | 0.00 | 80 | 1020.5 |
| 20260507074532 | 53 | 317 | 1.0 | 5.0 | 0.00 | 0.00 | 0.00 | 81 | 1020.5 |
| 20260507073030 | 53 | 340 | 0.0 | 4.0 | 0.00 | 0.00 | 0.00 | 81 | 1020.5 |
| 20260507071528 | 53 | 30 | 0.0 | 4.0 | 0.00 | 0.00 | 0.00 | 81 | 1020.4 |
| 20260507070028 | 53 | 44 | 1.0 | 5.0 | 0.00 | 0.00 | 0.00 | 82 | 1020.3 |
| 20260507064527 | 53 | 30 | 1.0 | 3.0 | 0.00 | 0.00 | 0.00 | 82 | 1020.4 |
| 20260507063039 | 54 | 46 | 1.0 | 8.0 | 0.00 | 0.00 | 0.00 | 82 | 1020.3 |
| 20260507061527 | 54 | 57 | 2.0 | 6.0 | 0.00 | 0.00 | 0.00 | 82 | 1020.4 |
| 20260507060039 | 54 | 46 | 2.0 | 6.0 | 0.00 | 0.00 | 0.00 | 82 | 1020.4 |
| 20260507054522 | 54 | 269 | 2.0 | 8.0 | 0.00 | 0.00 | 0.00 | 82 | 1020.3 |
| 20260507053026 | 54 | 82 | 3.0 | 10.0 | 0.00 | 0.00 | 0.00 | 81 | 1020.4 |
| 20260507051519 | 55 | 40 | 2.0 | 10.0 | 0.00 | 0.00 | 0.00 | 81 | 1020.3 |
| 20260507050017 | 55 | 49 | 2.0 | 7.0 | 0.00 | 0.00 | 0.00 | 81 | 1020.4 |
| 20260507044518 | 55 | 125 | 3.0 | 10.0 | 0.00 | 0.00 | 0.00 | 80 | 1020.4 |
| 20260507043016 | 56 | 46 | 2.0 | 7.0 | 0.00 | 0.00 | 0.00 | 80 | 1020.2 |
| 20260507041515 | 56 | 56 | 1.0 | 9.0 | 0.00 | 0.00 | 0.00 | 80 | 1020.1 |
| 20260507040017 | 56 | 5 | 3.0 | 11.0 | 0.00 | 0.00 | 0.00 | 80 | 1020.0 |
| 20260507034527 | 57 | 51 | 3.0 | 10.0 | 0.00 | 0.00 | 0.00 | 80 | 1019.8 |
| 20260507033013 | 57 | 65 | 2.0 | 9.0 | 0.00 | 0.00 | 0.00 | 81 | 1019.5 |
| 20260507031513 | 57 | 17 | 2.0 | 10.0 | 0.00 | 0.00 | 0.00 | 80 | 1019.3 |
| 20260507030012 | 58 | 30 | 1.0 | 6.0 | 0.00 | 0.00 | 0.00 | 79 | 1019.2 |
| 20260507024511 | 59 | 62 | 3.0 | 9.0 | 0.00 | 0.00 | 0.00 | 78 | 1019.0 |
| 20260507023011 | 59 | 61 | 3.0 | 6.0 | 0.00 | 0.00 | 0.00 | 78 | 1018.9 |
| 20260507021510 | 60 | 80 | 3.0 | 12.0 | 0.00 | 0.00 | 0.00 | 76 | 1018.9 |
| 20260507020024 | 61 | 341 | 3.0 | 9.0 | 0.00 | 0.00 | 0.00 | 74 | 1019.1 |
| 20260507014509 | 61 | 55 | 3.0 | 12.0 | 0.00 | 0.00 | 0.00 | 75 | 1019.1 |
| 20260507013018 | 62 | 75 | 4.0 | 12.0 | 0.00 | 0.00 | 0.00 | 73 | 1019.1 |
| 20260507011509 | 64 | 46 | 4.0 | 11.0 | 0.00 | 0.00 | 0.00 | 72 | 1019.0 |
| 20260507010008 | 65 | 40 | 2.0 | 11.0 | 0.00 | 0.00 | 0.00 | 72 | 1019.0 |
| 20260507004506 | 66 | 312 | 1.0 | 9.0 | 0.00 | 0.00 | 0.00 | 72 | 1018.9 |
| 20260507003007 | 66 | 94 | 2.0 | 7.0 | 0.00 | 0.00 | 0.00 | 71 | 1018.9 |
| 20260507001506 | 67 | 92 | 0.0 | 3.0 | 0.00 | 0.00 | 0.00 | 71 | 1018.9 |
| 20260507000005 | 67 | 141 | 2.0 | 5.0 | 0.00 | 0.00 | 0.00 | 69 | 1018.8 |
| 20260506234504 | 67 | 178 | 2.0 | 4.0 | 0.00 | 0.00 | 0.00 | 70 | 1018.8 |
| 20260506233006 | 68 | 133 | 2.0 | 6.0 | 0.00 | 0.00 | 0.00 | 68 | 1018.8 |
| 20260506231503 | 68 | 120 | 0.0 | 3.0 | 0.00 | 0.00 | 0.00 | 68 | 1018.9 |
| 20260506230002 | 68 | 111 | 2.0 | 6.0 | 0.00 | 0.00 | 0.00 | 68 | 1019.1 |
| 20260506224505 | 67 | 217 | 1.0 | 4.0 | 0.00 | 0.00 | 0.00 | 69 | 1019.2 |
| 20260506223001 | 68 | 141 | 1.0 | 7.0 | 0.00 | 0.00 | 0.00 | 66 | 1019.4 |
| 20260506221602 | 68 | 221 | 1.0 | 7.0 | 0.00 | 0.00 | 0.00 | 68 | 1019.5 |
| 20260506220104 | 70 | 323 | 1.0 | 6.0 | 0.00 | 0.00 | 0.00 | 66 | 1019.5 |
| 20260506214601 | 69 | 129 | 4.0 | 10.0 | 0.00 | 0.00 | 0.00 | 69 | 1019.4 |
| 20260506213053 | 67 | 140 | 5.0 | 8.0 | 0.00 | 0.00 | 0.00 | 71 | 1019.6 |
| 20260506211604 | 67 | 304 | 3.0 | 7.0 | 0.00 | 0.00 | 0.00 | 69 | 1019.9 |
| 20260506210052 | 68 | 238 | 2.0 | 8.0 | 0.00 | 0.00 | 0.00 | 69 | 1019.9 |
| 20260506204548 | 66 | 189 | 5.0 | 10.0 | 0.00 | 0.00 | 0.00 | 72 | 1019.8 |
| 20260506203043 | 64 | 131 | 7.0 | 10.0 | 0.00 | 0.00 | 0.00 | 76 | 1019.8 |
| 20260506201541 | 63 | 138 | 3.0 | 10.0 | 0.00 | 0.00 | 0.00 | 80 | 1019.9 |
| 20260506200043 | 62 | 260 | 1.0 | 7.0 | 0.00 | 0.00 | 0.00 | 79 | 1020.1 |
| 20260506194544 | 62 | 198 | 1.0 | 8.0 | 0.00 | 0.00 | 0.00 | 78 | 1020.3 |
| 20260506193035 | 62 | 173 | 2.0 | 9.0 | 0.00 | 0.00 | 0.00 | 79 | 1020.3 |
| 20260506191532 | 61 | 214 | 2.0 | 6.0 | 0.00 | 0.00 | 0.00 | 79 | 1020.1 |
| 20260506190030 | 61 | 281 | 1.0 | 7.0 | 0.00 | 0.00 | 0.00 | 79 | 1020.2 |
| 20260506184529 | 61 | 307 | 2.0 | 8.0 | 0.00 | 0.00 | 0.00 | 81 | 1020.0 |
| 20260506183028 | 60 | 136 | 2.0 | 8.0 | 0.00 | 0.00 | 0.00 | 82 | 1020.0 |
| 20260506181524 | 59 | 292 | 0.0 | 3.0 | 0.00 | 0.00 | 0.00 | 83 | 1020.1 |
| 20260506180021 | 58 | 226 | 2.0 | 5.0 | 0.00 | 0.00 | 0.00 | 83 | 1020.1 |
| 20260506174519 | 58 | 299 | 1.0 | 4.0 | 0.00 | 0.00 | 0.00 | 84 | 1020.1 |
| 20260506173023 | 57 | 165 | 1.0 | 4.0 | 0.00 | 0.00 | 0.00 | 86 | 1019.8 |
| 20260506171518 | 57 | 211 | 2.0 | 4.0 | 0.00 | 0.00 | 0.00 | 86 | 1019.8 |
| 20260506170016 | 57 | 340 | 1.0 | 5.0 | 0.00 | 0.00 | 0.00 | 86 | 1020.0 |
| 20260506164517 | 57 | 198 | 0.0 | 2.0 | 0.00 | 0.00 | 0.00 | 87 | 1019.9 |
| 20260506163019 | 56 | 161 | 2.0 | 4.0 | 0.00 | 0.00 | 0.00 | 88 | 1019.8 |
| 20260506161516 | 56 | 180 | 1.0 | 3.0 | 0.00 | 0.00 | 0.00 | 89 | 1019.6 |
| 20260506160018 | 55 | 176 | 1.0 | 6.0 | 0.00 | 0.00 | 0.00 | 89 | 1019.5 |
| 20260506154516 | 55 | 105 | 2.0 | 4.0 | 0.00 | 0.00 | 0.00 | 88 | 1019.0 |
| 20260506153013 | 55 | 24 | 0.0 | 2.0 | 0.00 | 0.00 | 0.00 | 88 | 1019.8 |
| 20260506151513 | 55 | 314 | 0.0 | 3.0 | 0.00 | 0.00 | 0.00 | 88 | 1019.9 |
| 20260506150011 | 55 | 326 | 0.0 | 2.0 | 0.00 | 0.00 | 0.00 | 88 | 1019.8 |
| 20260506144510 | 55 | 355 | 0.0 | 2.0 | 0.00 | 0.00 | 0.00 | 89 | 1019.7 |
| 20260506143007 | 55 | 311 | 0.0 | 2.0 | 0.00 | 0.00 | 0.00 | 89 | 1019.2 |
| 20260506141505 | 55 | 178 | 1.0 | 3.0 | 0.00 | 0.00 | 0.00 | 89 | 1018.9 |
| 20260506140006 | 55 | 192 | 0.0 | 3.0 | 0.00 | 0.00 | 0.00 | 89 | 1019.0 |
| 20260506134504 | 55 | 147 | 0.0 | 3.0 | 0.00 | 0.00 | 0.00 | 88 | 1018.8 |
| 20260506133003 | 54 | 162 | 0.0 | 5.0 | 0.00 | 0.00 | 0.00 | 88 | 1018.7 |
| 20260506131502 | 54 | 121 | 0.0 | 3.0 | 0.00 | 0.00 | 0.00 | 88 | 1018.6 |
| 20260506130100 | 54 | 101 | 1.0 | 3.0 | 0.00 | 0.00 | 0.00 | 88 | 1018.6 |
| 20260506124558 | 55 | 129 | 1.0 | 2.0 | 0.00 | 0.00 | 0.00 | 88 | 1018.5 |
| 20260506123057 | 55 | 80 | 0.0 | 3.0 | 0.00 | 0.00 | 0.00 | 87 | 1018.4 |
| 20260506121605 | 55 | 65 | 1.0 | 4.0 | 0.00 | 0.00 | 0.00 | 87 | 1018.5 |
| 20260506120118 | 55 | 39 | 1.0 | 4.0 | 0.00 | 0.00 | 0.00 | 87 | 1018.4 |
| 20260506114552 | 55 | 70 | 0.0 | 3.0 | 0.00 | 0.00 | 0.00 | 86 | 1018.1 |
| 20260506113051 | 55 | 44 | 1.0 | 5.0 | 0.00 | 0.00 | 0.00 | 86 | 1018.0 |
| 20260506111548 | 55 | 101 | 2.0 | 4.0 | 0.00 | 0.00 | 0.00 | 86 | 1017.9 |
| 20260506110047 | 55 | 63 | 0.0 | 2.0 | 0.00 | 0.00 | 0.00 | 86 | 1017.7 |
| 20260506104546 | 55 | 82 | 1.0 | 5.0 | 0.00 | 0.00 | 0.00 | 86 | 1017.4 |
| 20260506103043 | 56 | 67 | 1.0 | 4.0 | 0.00 | 0.00 | 0.00 | 85 | 1017.2 |
| 20260506101540 | 56 | 68 | 1.0 | 6.0 | 0.00 | 0.00 | 0.00 | 85 | 1017.1 |
| 20260506100039 | 56 | 65 | 0.0 | 4.0 | 0.00 | 0.00 | 0.00 | 85 | 1017.1 |
| 20260506094544 | 56 | 46 | 2.0 | 4.0 | 0.00 | 0.00 | 0.00 | 85 | 1016.9 |
| 20260506093044 | 57 | 52 | 1.0 | 5.0 | 0.00 | 0.00 | 0.00 | 86 | 1016.9 |
| 20260506091533 | 57 | 70 | 0.0 | 4.0 | 0.00 | 0.00 | 0.00 | 85 | 1016.8 |
| 20260506090031 | 57 | 68 | 1.0 | 3.0 | 0.00 | 0.00 | 0.00 | 85 | 1016.8 |